Date String (YYYY-MM-DD hh:mm:ss) UTC,Instrument flags,absolute air pressure of the measurement (hPa),sample flow rate (lpm),inlet stack bypass flow (lpm),air temperature of the measurement (°C),ambient temperature measured by the external sensor (°C),aerosol sample conditioner tube jacket temperature (°C),OPC LED temperature (°C),internal box temperature (°C),relative humidity of the measurement (%),span deviation,mass concentration of particles derived from Lorenz-Mie calculation of OPC scattering (μg/m³),mass concentration of particles derived from Lorenz-Mie calculation of OPC scattering (μg/m³),mass concentration of particles derived from Lorenz-Mie calculation of OPC scattering (μg/m³)
DateTimeUTC,F1_M11,P_M11,Q1_M11,Q2_M11,T1_M11,T2_M11,T3_M11,T4_M11,T5_M11,U1_M11,ZSPAN_M11,X0_M11,X2_M11,X1_M11
2024-03-31 05:00:00,SystemResetWarning,0819.5,5.02,000.00,024.6,023.7,000.0,033.3,026.5,18.0,0000.0,0010.00,0004.30,0003.73
2024-03-31 05:01:00,SystemResetWarning,0819.5,5.00,000.00,024.6,023.7,000.0,033.3,026.5,18.1,0000.0,0010.54,0004.33,0003.72
2024-03-31 05:02:00,SystemResetWarning,0819.4,4.99,000.00,024.6,023.7,000.0,033.3,026.5,18.0,0000.0,0010.85,0004.37,0003.72
2024-03-31 05:03:00,SystemResetWarning,0819.5,5.00,000.00,024.6,023.7,000.0,033.3,026.4,18.2,0000.0,0011.28,0004.35,0003.72
2024-03-31 05:04:00,SystemResetWarning,0819.5,5.00,000.00,024.6,023.7,000.0,033.3,026.4,18.1,0000.0,0011.51,0004.36,0003.72
2024-03-31 05:05:00,SystemResetWarning,0819.5,5.00,000.00,024.5,023.7,000.0,033.2,026.4,18.0,0000.0,0011.68,0004.34,0003.72
2024-03-31 05:06:00,SystemResetWarning,0819.5,5.00,000.00,024.5,023.7,000.0,033.2,026.4,18.1,0000.0,0011.70,0004.34,0003.73
2024-03-31 05:07:00,SystemResetWarning,0819.5,5.00,000.00,024.5,023.7,000.0,033.2,026.4,18.3,0000.0,0011.00,0004.30,0003.72
2024-03-31 05:08:00,SystemResetWarning,0819.5,5.00,000.00,024.5,023.7,000.0,033.2,026.4,18.2,0000.0,0010.53,0004.29,0003.74
2024-03-31 05:09:00,SystemResetWarning,0819.5,4.99,000.00,024.5,023.6,000.0,033.2,026.4,18.2,0000.0,0010.53,0004.29,0003.74
2024-03-31 05:10:00,SystemResetWarning,0819.5,5.00,000.00,024.5,023.6,000.0,033.2,026.3,18.2,0000.0,0009.98,0004.32,0003.75
2024-03-31 05:11:00,SystemResetWarning,0819.5,5.00,000.00,024.5,023.6,000.0,033.2,026.4,18.1,0000.0,0009.60,0004.33,0003.76
2024-03-31 05:12:00,SystemResetWarning,0819.5,5.00,000.00,024.5,023.6,000.0,033.2,026.3,18.1,0000.0,0009.25,0004.31,0003.76
2024-03-31 05:13:00,SystemResetWarning,0819.7,5.00,000.00,024.5,023.6,000.0,033.2,026.3,18.2,0000.0,0009.21,0004.28,0003.77
2024-03-31 05:14:00,SystemResetWarning,0819.8,5.01,000.00,024.4,023.6,000.0,033.2,026.3,18.2,0000.0,0008.91,0004.29,0003.77
2024-03-31 05:15:00,SystemResetWarning,0819.7,5.00,000.00,024.4,023.6,000.0,033.1,026.3,18.0,0000.0,0009.16,0004.32,0003.77
2024-03-31 05:16:00,SystemResetWarning,0819.6,5.00,000.00,024.4,023.6,000.0,033.1,026.3,18.1,0000.0,0009.14,0004.33,0003.77
2024-03-31 05:17:00,SystemResetWarning,0819.5,4.99,000.00,024.4,023.5,000.0,033.1,026.3,18.1,0000.0,0009.50,0004.33,0003.76
2024-03-31 05:18:00,SystemResetWarning,0819.4,5.00,000.00,024.4,023.5,000.0,033.1,026.3,18.0,0000.0,0010.35,0004.33,0003.76
2024-03-31 05:19:00,SystemResetWarning,0819.4,4.99,000.00,024.4,023.5,000.0,033.1,026.3,18.0,0000.0,0010.76,0004.35,0003.74
2024-03-31 05:20:00,SystemResetWarning,0819.5,5.00,000.00,024.4,023.5,000.0,033.1,026.3,18.0,0000.0,0010.92,0004.39,0003.75
2024-03-31 05:21:00,SystemResetWarning,0819.5,5.01,000.00,024.4,023.5,000.0,033.1,026.3,18.0,0000.0,0010.95,0004.39,0003.76
2024-03-31 05:22:00,SystemResetWarning,0819.5,5.01,000.00,024.4,023.5,000.0,033.1,026.3,18.0,0000.0,0010.71,0004.39,0003.75
2024-03-31 05:23:00,SystemResetWarning,0819.5,5.00,000.00,024.4,023.5,000.0,033.1,026.2,17.9,0000.0,0010.77,0004.39,0003.74
2024-03-31 05:24:00,SystemResetWarning,0819.5,5.00,000.00,024.4,023.5,000.0,033.1,026.2,18.0,0000.0,0011.32,0004.37,0003.72
2024-03-31 05:25:00,SystemResetWarning,0819.5,5.00,000.00,024.3,023.5,000.0,033.0,026.2,18.1,0000.0,0011.70,0004.38,0003.72
2024-03-31 05:26:00,SystemResetWarning,0819.5,4.99,000.00,024.3,023.5,000.0,033.0,026.2,18.0,0000.0,0011.49,0004.36,0003.69
2024-03-31 05:27:00,SystemResetWarning,0819.5,5.00,000.00,024.3,023.5,000.0,033.0,026.2,18.1,0000.0,0011.86,0004.32,0003.68
2024-03-31 05:28:00,SystemResetWarning,0819.8,5.02,000.00,024.3,023.5,000.0,033.0,026.2,18.1,0000.0,0011.86,0004.30,0003.67
2024-03-31 05:29:00,SystemResetWarning,0819.7,5.01,000.00,024.3,023.5,000.0,033.0,026.2,18.2,0000.0,0011.11,0004.28,0003.65
2024-03-31 05:30:00,SystemResetWarning,0820.1,4.99,000.00,024.3,023.5,000.0,033.0,026.2,18.1,0000.0,0011.22,0004.25,0003.64
2024-03-31 05:31:00,SystemResetWarning,0820.2,5.00,000.00,024.3,023.5,000.0,033.0,026.2,18.1,0000.0,0011.10,0004.20,0003.62
2024-03-31 05:32:00,SystemResetWarning,0820.2,5.01,000.00,024.3,023.5,000.0,033.0,026.2,18.1,0000.0,0011.00,0004.16,0003.59
2024-03-31 05:33:00,SystemResetWarning,0820.0,5.00,000.00,024.3,023.5,000.0,033.0,026.2,18.2,0000.0,0010.86,0004.10,0003.56
2024-03-31 05:34:00,SystemResetWarning,0819.8,4.99,000.00,024.3,023.5,000.0,033.0,026.2,18.3,0000.0,0010.61,0004.10,0003.55
2024-03-31 05:35:00,SystemResetWarning,0819.8,5.00,000.00,024.3,023.5,000.0,033.0,026.2,18.1,0000.0,0009.76,0004.07,0003.54
2024-03-31 05:36:00,SystemResetWarning,0819.7,5.01,000.00,024.3,023.5,000.0,033.0,026.2,18.2,0000.0,0009.27,0004.04,0003.52
2024-03-31 05:37:00,SystemResetWarning,0819.8,5.01,000.00,024.3,023.5,000.0,033.0,026.2,18.1,0000.0,0009.04,0004.05,0003.52
2024-03-31 05:38:00,SystemResetWarning,0819.7,5.00,000.00,024.3,023.5,000.0,033.0,026.2,18.1,0000.0,0009.57,0004.08,0003.52
2024-03-31 05:39:00,SystemResetWarning,0819.8,5.00,000.00,024.3,023.5,000.0,032.9,026.2,18.2,0000.0,0009.97,0004.04,0003.51
2024-03-31 05:40:00,SystemResetWarning,0819.9,4.99,000.00,024.3,023.5,000.0,032.9,026.2,18.3,0000.0,0010.12,0004.05,0003.50
2024-03-31 05:41:00,SystemResetWarning,0819.7,5.00,000.00,024.3,023.5,000.0,032.9,026.2,18.4,0000.0,0010.23,0004.05,0003.49
2024-03-31 05:42:00,SystemResetWarning,0819.8,5.01,000.00,024.3,023.5,000.0,032.9,026.2,18.4,0000.0,0010.21,0004.04,0003.48
2024-03-31 05:43:00,SystemResetWarning,0819.8,5.01,000.00,024.3,023.5,000.0,032.9,026.2,18.3,0000.0,0010.46,0004.02,0003.47
2024-03-31 05:44:00,SystemResetWarning,0819.5,4.99,000.00,024.3,023.5,000.0,032.9,026.2,18.2,0000.0,0010.51,0004.03,0003.45
2024-03-31 05:45:00,SystemResetWarning,0819.5,4.99,000.00,024.3,023.5,000.0,032.9,026.2,18.2,0000.0,0011.30,0004.01,0003.42
2024-03-31 05:46:00,SystemResetWarning,0819.5,5.00,000.00,024.3,023.4,000.0,032.9,026.1,18.3,0000.0,0011.39,0004.00,0003.39
2024-03-31 05:47:00,SystemResetWarning,0819.5,5.00,000.00,024.2,023.4,000.0,032.9,026.1,18.3,0000.0,0011.43,0003.99,0003.37
2024-03-31 05:48:00,SystemResetWarning,0819.5,5.01,000.00,024.2,023.4,000.0,032.9,026.1,18.3,0000.0,0011.42,0003.96,0003.34
2024-03-31 05:49:00,SystemResetWarning,0819.5,5.01,000.00,024.2,023.4,000.0,032.9,026.1,18.3,0000.0,0010.77,0003.89,0003.30
2024-03-31 05:50:00,SystemResetWarning,0819.5,5.00,000.00,024.2,023.4,000.0,032.9,026.1,18.3,0000.0,0010.15,0003.89,0003.27
2024-03-31 05:51:00,SystemResetWarning,0819.5,4.99,000.00,024.2,023.4,000.0,032.9,026.1,18.4,0000.0,0010.23,0003.85,0003.25
2024-03-31 05:52:00,SystemResetWarning,0819.5,5.00,000.00,024.2,023.3,000.0,032.9,026.1,18.4,0000.0,0009.80,0003.84,0003.22
2024-03-31 05:53:00,SystemResetWarning,0819.5,4.99,000.00,024.2,023.3,000.0,032.9,026.1,18.4,0000.0,0010.31,0003.81,0003.20
2024-03-31 05:54:00,SystemResetWarning,0819.5,5.01,000.00,024.2,023.3,000.0,032.9,026.1,18.4,0000.0,0010.13,0003.78,0003.18
2024-03-31 05:55:00,SystemResetWarning,0819.5,5.01,000.00,024.2,023.3,000.0,032.9,026.1,18.4,0000.0,0010.30,0003.76,0003.17
2024-03-31 05:56:00,SystemResetWarning,0819.5,5.01,000.00,024.2,023.3,000.0,032.9,026.1,18.3,0000.0,0010.05,0003.74,0003.18
2024-03-31 05:57:00,SystemResetWarning,0819.5,4.99,000.00,024.2,023.2,000.0,032.9,026.0,18.3,0000.0,0010.55,0003.74,0003.18
2024-03-31 05:58:00,SystemResetWarning,0819.5,4.99,000.00,024.2,023.3,000.0,032.9,026.0,18.6,0000.0,0010.57,0003.69,0003.16
2024-03-31 05:59:00,SystemResetWarning,0819.5,4.99,000.00,024.1,023.3,000.0,032.8,026.0,18.7,0000.0,0010.87,0003.65,0003.15
